Time,TemperatureF,DewpointF,PressureIn,WindDirection,WindDirectionDegrees,WindSpeedMPH,WindSpeedGustMPH,Humidity,HourlyPrecipIn,Conditions,Clouds,dailyrainin,SoftwareType,DateUTC
2013-09-01 01:00:00,71.0,46.7,29.83,ENE,68,0.0,1.0,42,0.00,,,0.00,WeatherCatV1.21B27,2013-09-01 08:00:00,
2013-09-01 01:05:00,71.0,46.7,29.83,ENE,68,0.0,1.0,42,0.00,,,0.00,WeatherCatV1.21B27,2013-09-01 08:05:00,
2013-09-01 01:10:00,71.0,46.7,29.83,ENE,68,0.0,1.0,42,0.00,,,0.00,WeatherCatV1.21B27,2013-09-01 08:10:00,
2013-09-01 01:15:00,71.0,46.7,29.83,ENE,68,0.0,1.0,42,0.00,,,0.00,WeatherCatV1.21B27,2013-09-01 08:15:00,
2013-09-01 01:20:00,71.0,46.7,29.83,ENE,68,0.0,1.0,42,0.00,,,0.00,WeatherCatV1.21B27,2013-09-01 08:20:00,
2013-09-01 01:25:00,71.0,46.7,29.83,ENE,68,0.0,1.0,42,0.00,,,0.00,WeatherCatV1.21B27,2013-09-01 08:25:00,
2013-09-01 01:30:00,71.0,46.7,29.83,ENE,68,0.0,1.0,42,0.00,,,0.00,WeatherCatV1.21B27,2013-09-01 08:30:00,
2013-09-01 01:35:00,71.0,46.7,29.83,ENE,68,0.0,1.0,42,0.00,,,0.00,WeatherCatV1.21B27,2013-09-01 08:35:00,
2013-09-01 01:40:00,71.0,46.7,29.83,ENE,68,0.0,1.0,42,0.00,,,0.00,WeatherCatV1.21B27,2013-09-01 08:40:00,
2013-09-01 01:45:00,71.0,46.7,29.83,ENE,68,0.0,1.0,42,0.00,,,0.00,WeatherCatV1.21B27,2013-09-01 08:45:00,
2013-09-01 01:50:00,71.0,46.7,29.83,ENE,68,0.0,1.0,42,0.00,,,0.00,WeatherCatV1.21B27,2013-09-01 08:50:00,
2013-09-01 01:55:00,71.0,46.7,29.83,ENE,68,0.0,1.0,42,0.00,,,0.00,WeatherCatV1.21B27,2013-09-01 08:55:00,
2013-09-01 02:00:00,69.0,47.3,29.83,East,90,0.0,2.0,46,0.00,,,0.00,WeatherCatV1.21B27,2013-09-01 09:00:00,
2013-09-01 02:05:00,69.0,47.3,29.83,East,90,0.0,2.0,46,0.00,,,0.00,WeatherCatV1.21B27,2013-09-01 09:05:00,
2013-09-01 02:10:00,69.0,47.3,29.83,East,90,0.0,2.0,46,0.00,,,0.00,WeatherCatV1.21B27,2013-09-01 09:10:00,
2013-09-01 02:15:00,69.0,47.3,29.83,East,90,0.0,2.0,46,0.00,,,0.00,WeatherCatV1.21B27,2013-09-01 09:15:00,
2013-09-01 02:20:00,69.0,47.3,29.83,East,90,0.0,2.0,46,0.00,,,0.00,WeatherCatV1.21B27,2013-09-01 09:20:00,
2013-09-01 02:25:00,69.0,47.3,29.83,East,90,0.0,2.0,46,0.00,,,0.00,WeatherCatV1.21B27,2013-09-01 09:25:00,
2013-09-01 02:30:00,69.0,47.3,29.83,East,90,0.0,2.0,46,0.00,,,0.00,WeatherCatV1.21B27,2013-09-01 09:30:00,
2013-09-01 02:35:00,69.0,47.3,29.83,East,90,0.0,2.0,46,0.00,,,0.00,WeatherCatV1.21B27,2013-09-01 09:35:00,
2013-09-01 02:40:00,69.0,47.3,29.83,East,90,0.0,2.0,46,0.00,,,0.00,WeatherCatV1.21B27,2013-09-01 09:40:00,
2013-09-01 02:45:00,69.0,47.3,29.83,East,90,0.0,2.0,46,0.00,,,0.00,WeatherCatV1.21B27,2013-09-01 09:45:00,
2013-09-01 02:50:00,69.0,47.3,29.83,East,90,0.0,2.0,46,0.00,,,0.00,WeatherCatV1.21B27,2013-09-01 09:50:00,
2013-09-01 02:55:00,69.0,47.3,29.83,East,90,0.0,2.0,46,0.00,,,0.00,WeatherCatV1.21B27,2013-09-01 09:55:00,
2013-09-01 03:00:00,69.2,48.1,29.82,ENE,68,0.0,2.0,47,0.00,,,0.00,WeatherCatV1.21B27,2013-09-01 10:00:00,
2013-09-01 03:05:00,69.2,48.1,29.82,ENE,68,0.0,2.0,47,0.00,,,0.00,WeatherCatV1.21B27,2013-09-01 10:05:00,
2013-09-01 03:10:00,69.2,48.1,29.82,ENE,68,0.0,2.0,47,0.00,,,0.00,WeatherCatV1.21B27,2013-09-01 10:10:00,
2013-09-01 03:15:00,69.2,48.1,29.82,ENE,68,0.0,2.0,47,0.00,,,0.00,WeatherCatV1.21B27,2013-09-01 10:15:00,
2013-09-01 03:20:00,69.2,48.1,29.82,ENE,68,0.0,2.0,47,0.00,,,0.00,WeatherCatV1.21B27,2013-09-01 10:20:00,
2013-09-01 03:25:00,69.2,48.1,29.82,ENE,68,0.0,2.0,47,0.00,,,0.00,WeatherCatV1.21B27,2013-09-01 10:25:00,
2013-09-01 03:30:00,69.2,48.1,29.82,ENE,68,0.0,2.0,47,0.00,,,0.00,WeatherCatV1.21B27,2013-09-01 10:30:00,
2013-09-01 03:35:00,69.2,48.1,29.82,ENE,68,0.0,2.0,47,0.00,,,0.00,WeatherCatV1.21B27,2013-09-01 10:35:00,
2013-09-01 03:40:00,69.2,48.1,29.82,ENE,68,0.0,2.0,47,0.00,,,0.00,WeatherCatV1.21B27,2013-09-01 10:40:00,
2013-09-01 03:45:00,69.2,48.1,29.82,ENE,68,0.0,2.0,47,0.00,,,0.00,WeatherCatV1.21B27,2013-09-01 10:45:00,
2013-09-01 03:50:00,69.2,48.1,29.82,ENE,68,0.0,2.0,47,0.00,,,0.00,WeatherCatV1.21B27,2013-09-01 10:50:00,
2013-09-01 03:55:00,69.2,48.1,29.82,ENE,68,0.0,2.0,47,0.00,,,0.00,WeatherCatV1.21B27,2013-09-01 10:55:00,
2013-09-01 04:00:00,68.6,52.3,29.81,NE,45,0.0,2.0,56,0.00,,,0.00,WeatherCatV1.21B27,2013-09-01 11:00:00,
2013-09-01 04:05:00,68.6,52.3,29.81,NE,45,0.0,2.0,56,0.00,,,0.00,WeatherCatV1.21B27,2013-09-01 11:05:00,
2013-09-01 04:10:00,68.6,52.3,29.81,NE,45,0.0,2.0,56,0.00,,,0.00,WeatherCatV1.21B27,2013-09-01 11:10:00,
2013-09-01 04:15:00,68.6,52.3,29.81,NE,45,0.0,2.0,56,0.00,,,0.00,WeatherCatV1.21B27,2013-09-01 11:15:00,
2013-09-01 04:20:00,68.6,52.3,29.81,NE,45,0.0,2.0,56,0.00,,,0.00,WeatherCatV1.21B27,2013-09-01 11:20:00,
2013-09-01 04:25:00,68.6,52.3,29.81,NE,45,0.0,2.0,56,0.00,,,0.00,WeatherCatV1.21B27,2013-09-01 11:25:00,
2013-09-01 04:30:00,68.6,52.3,29.81,NE,45,0.0,2.0,56,0.00,,,0.00,WeatherCatV1.21B27,2013-09-01 11:30:00,
2013-09-01 04:35:00,68.6,52.3,29.81,NE,45,0.0,2.0,56,0.00,,,0.00,WeatherCatV1.21B27,2013-09-01 11:35:00,
2013-09-01 04:40:00,68.6,52.3,29.81,NE,45,0.0,2.0,56,0.00,,,0.00,WeatherCatV1.21B27,2013-09-01 11:40:00,
2013-09-01 04:45:00,68.6,52.3,29.81,NE,45,0.0,2.0,56,0.00,,,0.00,WeatherCatV1.21B27,2013-09-01 11:45:00,
2013-09-01 04:50:00,68.6,52.3,29.81,NE,45,0.0,2.0,56,0.00,,,0.00,WeatherCatV1.21B27,2013-09-01 11:50:00,
2013-09-01 04:55:00,68.6,52.3,29.81,NE,45,0.0,2.0,56,0.00,,,0.00,WeatherCatV1.21B27,2013-09-01 11:55:00,
2013-09-01 05:00:00,64.4,54.8,29.81,East,90,0.0,1.0,71,0.00,,,0.00,WeatherCatV1.21B27,2013-09-01 12:00:00,
2013-09-01 05:05:00,64.4,54.8,29.81,East,90,0.0,1.0,71,0.00,,,0.00,WeatherCatV1.21B27,2013-09-01 12:05:00,
2013-09-01 05:10:00,64.4,54.8,29.81,East,90,0.0,1.0,71,0.00,,,0.00,WeatherCatV1.21B27,2013-09-01 12:10:00,
2013-09-01 05:15:00,64.4,54.8,29.81,East,90,0.0,1.0,71,0.00,,,0.00,WeatherCatV1.21B27,2013-09-01 12:15:00,
2013-09-01 05:20:00,64.4,54.8,29.81,East,90,0.0,1.0,71,0.00,,,0.00,WeatherCatV1.21B27,2013-09-01 12:20:00,
2013-09-01 05:25:00,64.4,54.8,29.81,East,90,0.0,1.0,71,0.00,,,0.00,WeatherCatV1.21B27,2013-09-01 12:25:00,
2013-09-01 05:30:00,64.4,54.8,29.81,East,90,0.0,1.0,71,0.00,,,0.00,WeatherCatV1.21B27,2013-09-01 12:30:00,
2013-09-01 05:35:00,64.4,54.8,29.81,East,90,0.0,1.0,71,0.00,,,0.00,WeatherCatV1.21B27,2013-09-01 12:35:00,
2013-09-01 05:40:00,64.4,54.8,29.81,East,90,0.0,1.0,71,0.00,,,0.00,WeatherCatV1.21B27,2013-09-01 12:40:00,
2013-09-01 05:45:00,64.4,54.8,29.81,East,90,0.0,1.0,71,0.00,,,0.00,WeatherCatV1.21B27,2013-09-01 12:45:00,
2013-09-01 05:50:00,64.4,54.8,29.81,East,90,0.0,1.0,71,0.00,,,0.00,WeatherCatV1.21B27,2013-09-01 12:50:00,
2013-09-01 05:55:00,64.4,54.8,29.81,East,90,0.0,1.0,71,0.00,,,0.00,WeatherCatV1.21B27,2013-09-01 12:55:00,
2013-09-01 06:00:00,64.3,55.1,29.80,ESE,112,0.0,1.0,72,0.00,,,0.00,WeatherCatV1.21B27,2013-09-01 13:00:00,
2013-09-01 06:05:00,64.3,55.1,29.80,ESE,112,0.0,1.0,72,0.00,,,0.00,WeatherCatV1.21B27,2013-09-01 13:05:00,
2013-09-01 06:10:00,64.3,55.1,29.80,ESE,112,0.0,1.0,72,0.00,,,0.00,WeatherCatV1.21B27,2013-09-01 13:10:00,
2013-09-01 06:15:00,64.3,55.1,29.80,ESE,112,0.0,1.0,72,0.00,,,0.00,WeatherCatV1.21B27,2013-09-01 13:15:00,
2013-09-01 06:20:00,64.3,55.1,29.80,ESE,112,0.0,1.0,72,0.00,,,0.00,WeatherCatV1.21B27,2013-09-01 13:20:00,
2013-09-01 06:25:00,64.3,55.1,29.80,ESE,112,0.0,1.0,72,0.00,,,0.00,WeatherCatV1.21B27,2013-09-01 13:25:00,
2013-09-01 06:30:00,64.3,55.1,29.80,ESE,112,0.0,1.0,72,0.00,,,0.00,WeatherCatV1.21B27,2013-09-01 13:30:00,
2013-09-01 06:35:00,64.3,55.1,29.80,ESE,112,0.0,1.0,72,0.00,,,0.00,WeatherCatV1.21B27,2013-09-01 13:35:00,
2013-09-01 06:40:00,64.3,55.1,29.80,ESE,112,0.0,1.0,72,0.00,,,0.00,WeatherCatV1.21B27,2013-09-01 13:40:00,
2013-09-01 06:45:00,64.3,55.1,29.80,ESE,112,0.0,1.0,72,0.00,,,0.00,WeatherCatV1.21B27,2013-09-01 13:45:00,
2013-09-01 06:50:00,64.3,55.1,29.80,ESE,112,0.0,1.0,72,0.00,,,0.00,WeatherCatV1.21B27,2013-09-01 13:50:00,
2013-09-01 06:55:00,64.3,55.1,29.80,ESE,112,0.0,1.0,72,0.00,,,0.00,WeatherCatV1.21B27,2013-09-01 13:55:00,
2013-09-01 07:00:00,62.5,53.7,29.81,ESE,112,0.0,0.0,73,0.00,,,0.00,WeatherCatV1.21B27,2013-09-01 14:00:00,
2013-09-01 07:05:00,62.5,53.7,29.81,ESE,112,0.0,0.0,73,0.00,,,0.00,WeatherCatV1.21B27,2013-09-01 14:05:00,
2013-09-01 07:10:00,62.5,53.7,29.81,ESE,112,0.0,0.0,73,0.00,,,0.00,WeatherCatV1.21B27,2013-09-01 14:10:00,
2013-09-01 07:15:00,62.5,53.7,29.81,ESE,112,0.0,0.0,73,0.00,,,0.00,WeatherCatV1.21B27,2013-09-01 14:15:00,
2013-09-01 07:20:00,62.5,53.7,29.81,ESE,112,0.0,0.0,73,0.00,,,0.00,WeatherCatV1.21B27,2013-09-01 14:20:00,
2013-09-01 07:25:00,62.5,53.7,29.81,ESE,112,0.0,0.0,73,0.00,,,0.00,WeatherCatV1.21B27,2013-09-01 14:25:00,
2013-09-01 07:30:00,62.5,53.7,29.81,ESE,112,0.0,0.0,73,0.00,,,0.00,WeatherCatV1.21B27,2013-09-01 14:30:00,
2013-09-01 07:35:00,62.5,53.7,29.81,ESE,112,0.0,0.0,73,0.00,,,0.00,WeatherCatV1.21B27,2013-09-01 14:35:00,
2013-09-01 07:40:00,62.5,53.7,29.81,ESE,112,0.0,0.0,73,0.00,,,0.00,WeatherCatV1.21B27,2013-09-01 14:40:00,
2013-09-01 07:45:00,62.5,53.7,29.81,ESE,112,0.0,0.0,73,0.00,,,0.00,WeatherCatV1.21B27,2013-09-01 14:45:00,
2013-09-01 07:50:00,62.5,53.7,29.81,ESE,112,0.0,0.0,73,0.00,,,0.00,WeatherCatV1.21B27,2013-09-01 14:50:00,
2013-09-01 07:55:00,62.5,53.7,29.81,ESE,112,0.0,0.0,73,0.00,,,0.00,WeatherCatV1.21B27,2013-09-01 14:55:00,
2013-09-01 08:00:00,67.3,53.4,29.82,East,83,0.0,0.0,61,0.00,,,0.00,WeatherCatV1.21B27,2013-09-01 15:00:00,
2013-09-01 08:14:00,67.4,53.9,29.82,East,83,0.0,1.0,62,0.00,,,0.00,WeatherCatV1.21B27,2013-09-01 15:14:00,
2013-09-01 08:19:00,67.5,55.3,29.82,East,82,0.0,0.0,65,0.00,,,0.00,WeatherCatV1.21B27,2013-09-01 15:19:00,
2013-09-01 08:24:00,67.1,54.5,29.82,East,82,0.0,0.0,64,0.00,,,0.00,WeatherCatV1.21B27,2013-09-01 15:24:00,
2013-09-01 08:29:00,66.9,54.3,29.82,East,82,0.0,0.0,64,0.00,,,0.00,WeatherCatV1.21B27,2013-09-01 15:29:00,
2013-09-01 08:34:00,67.0,54.4,29.82,East,82,0.0,0.0,64,0.00,,,0.00,WeatherCatV1.21B27,2013-09-01 15:34:00,
2013-09-01 08:39:00,67.3,55.5,29.82,East,82,0.0,0.0,66,0.00,,,0.00,WeatherCatV1.21B27,2013-09-01 15:39:00,
2013-09-01 08:44:00,67.7,56.3,29.82,East,82,0.0,0.0,67,0.00,,,0.00,WeatherCatV1.21B27,2013-09-01 15:44:00,
2013-09-01 08:49:00,68.1,56.7,29.81,East,82,0.0,0.0,67,0.00,,,0.00,WeatherCatV1.21B27,2013-09-01 15:49:00,
2013-09-01 08:54:00,68.6,57.2,29.82,East,82,0.0,0.0,67,0.00,,,0.00,WeatherCatV1.21B27,2013-09-01 15:54:00,
2013-09-01 08:59:00,69.2,57.3,29.81,East,82,0.0,0.0,66,0.00,,,0.00,WeatherCatV1.21B27,2013-09-01 15:59:00,
2013-09-01 09:04:00,69.7,57.8,29.81,East,82,0.0,0.0,66,0.00,,,0.00,WeatherCatV1.21B27,2013-09-01 16:04:00,
2013-09-01 09:10:00,70.2,58.3,29.82,East,82,0.0,0.0,66,0.00,,,0.00,WeatherCatV1.21B27,2013-09-01 16:10:00,
2013-09-01 09:15:00,70.6,58.7,29.82,East,82,0.0,0.0,66,0.00,,,0.00,WeatherCatV1.21B27,2013-09-01 16:15:00,
2013-09-01 09:20:00,70.9,59.0,29.82,East,82,0.0,0.0,66,0.00,,,0.00,WeatherCatV1.21B27,2013-09-01 16:20:00,
2013-09-01 09:25:00,71.4,58.1,29.82,East,82,0.0,0.0,63,0.00,,,0.00,WeatherCatV1.21B27,2013-09-01 16:25:00,
2013-09-01 09:30:00,71.9,58.6,29.82,East,82,0.0,0.0,63,0.00,,,0.00,WeatherCatV1.21B27,2013-09-01 16:30:00,
2013-09-01 09:35:00,72.4,57.2,29.82,East,82,0.0,0.0,59,0.00,,,0.00,WeatherCatV1.21B27,2013-09-01 16:35:00,
2013-09-01 09:40:00,73.0,57.8,29.82,East,82,0.0,1.0,59,0.00,,,0.00,WeatherCatV1.21B27,2013-09-01 16:40:00,
2013-09-01 09:45:00,73.6,57.9,29.82,East,82,0.0,0.0,58,0.00,,,0.00,WeatherCatV1.21B27,2013-09-01 16:45:00,
2013-09-01 09:50:00,74.4,57.7,29.82,East,82,0.0,0.0,56,0.00,,,0.00,WeatherCatV1.21B27,2013-09-01 16:50:00,
2013-09-01 09:55:00,75.3,50.0,29.82,SW,224,0.0,1.0,41,0.00,,,0.00,WeatherCatV1.21B27,2013-09-01 16:55:00,
2013-09-01 10:00:00,76.1,50.0,29.82,SW,224,0.0,0.0,40,0.00,,,0.00,WeatherCatV1.21B27,2013-09-01 17:00:00,
2013-09-01 10:05:00,76.9,53.9,29.82,SW,225,0.0,0.0,45,0.00,,,0.00,WeatherCatV1.21B27,2013-09-01 17:05:00,
2013-09-01 10:10:00,77.5,50.6,29.82,SW,225,0.0,1.0,39,0.00,,,0.00,WeatherCatV1.21B27,2013-09-01 17:10:00,
2013-09-01 10:15:00,78.0,52.4,29.82,WSW,256,0.0,0.0,41,0.00,,,0.00,WeatherCatV1.21B27,2013-09-01 17:15:00,
2013-09-01 10:20:00,78.3,49.9,29.83,WSW,255,0.0,1.0,37,0.00,,,0.00,WeatherCatV1.21B27,2013-09-01 17:20:00,
2013-09-01 10:25:00,78.6,50.1,29.82,WSW,255,0.0,1.0,37,0.00,,,0.00,WeatherCatV1.21B27,2013-09-01 17:25:00,
2013-09-01 10:30:00,79.1,45.8,29.83,SE,139,0.0,1.0,31,0.00,,,0.00,WeatherCatV1.21B27,2013-09-01 17:30:00,
2013-09-01 10:35:00,79.3,48.5,29.82,SE,138,0.0,0.0,34,0.00,,,0.00,WeatherCatV1.21B27,2013-09-01 17:35:00,
2013-09-01 10:40:00,79.5,49.4,29.82,SE,139,0.0,0.0,35,0.00,,,0.00,WeatherCatV1.21B27,2013-09-01 17:40:00,
2013-09-01 10:45:00,79.7,51.1,29.82,SSW,211,0.0,1.0,37,0.00,,,0.00,WeatherCatV1.21B27,2013-09-01 17:45:00,
2013-09-01 10:50:00,79.9,46.5,29.82,SSE,148,2.0,2.0,31,0.00,,,0.00,WeatherCatV1.21B27,2013-09-01 17:50:00,
2013-09-01 10:55:00,80.4,47.0,29.82,WSW,243,1.0,1.0,31,0.00,,,0.00,WeatherCatV1.21B27,2013-09-01 17:55:00,
2013-09-01 11:00:00,80.5,48.7,29.82,West,269,0.0,1.0,33,0.00,,,0.00,WeatherCatV1.21B27,2013-09-01 18:00:00,
2013-09-01 11:05:00,80.8,45.5,29.82,SE,129,0.0,0.0,29,0.00,,,0.00,WeatherCatV1.21B27,2013-09-01 18:05:00,
2013-09-01 11:10:00,81.1,45.8,29.82,WNW,293,1.0,1.0,29,0.00,,,0.00,WeatherCatV1.21B27,2013-09-01 18:10:00,
2013-09-01 11:15:00,80.7,46.4,29.82,West,259,0.0,1.0,30,0.00,,,0.00,WeatherCatV1.21B27,2013-09-01 18:15:00,
2013-09-01 11:20:00,80.3,46.0,29.82,WSW,252,0.0,0.0,30,0.00,,,0.00,WeatherCatV1.21B27,2013-09-01 18:20:00,
2013-09-01 11:25:00,80.0,43.9,29.82,WSW,250,0.0,1.0,28,0.00,,,0.00,WeatherCatV1.21B27,2013-09-01 18:25:00,
2013-09-01 11:30:00,79.8,45.6,29.82,WSW,252,0.0,0.0,30,0.00,,,0.00,WeatherCatV1.21B27,2013-09-01 18:30:00,
2013-09-01 11:35:00,80.0,46.6,29.82,West,271,1.0,2.0,31,0.00,,,0.00,WeatherCatV1.21B27,2013-09-01 18:35:00,
2013-09-01 11:40:00,79.7,45.5,29.82,WSW,257,1.0,1.0,30,0.00,,,0.00,WeatherCatV1.21B27,2013-09-01 18:40:00,
2013-09-01 11:45:00,79.5,43.5,29.82,West,261,1.0,1.0,28,0.00,,,0.00,WeatherCatV1.21B27,2013-09-01 18:45:00,
2013-09-01 11:50:00,79.9,43.9,29.82,West,267,0.0,1.0,28,0.00,,,0.00,WeatherCatV1.21B27,2013-09-01 18:50:00,
2013-09-01 11:55:00,80.3,44.2,29.82,WSW,250,2.0,2.0,28,0.00,,,0.00,WeatherCatV1.21B27,2013-09-01 18:55:00,
2013-09-01 12:00:00,80.2,42.2,29.82,West,263,0.0,2.0,26,0.00,,,0.00,WeatherCatV1.21B27,2013-09-01 19:00:00,
2013-09-01 12:05:00,80.1,42.1,29.82,West,264,1.0,3.0,26,0.00,,,0.00,WeatherCatV1.21B27,2013-09-01 19:05:00,
2013-09-01 12:10:00,80.3,42.3,29.82,WSW,242,4.0,4.0,26,0.00,,,0.00,WeatherCatV1.21B27,2013-09-01 19:10:00,
2013-09-01 12:15:00,80.6,41.5,29.82,SW,229,1.0,2.0,25,0.00,,,0.00,WeatherCatV1.21B27,2013-09-01 19:15:00,
2013-09-01 12:20:00,80.5,42.4,29.82,WSW,249,1.0,2.0,26,0.00,,,0.00,WeatherCatV1.21B27,2013-09-01 19:20:00,
2013-09-01 12:25:00,80.8,41.7,29.82,WSW,252,2.0,3.0,25,0.00,,,0.00,WeatherCatV1.21B27,2013-09-01 19:25:00,
2013-09-01 12:30:00,81.5,43.3,29.81,West,267,2.0,3.0,26,0.00,,,0.00,WeatherCatV1.21B27,2013-09-01 19:30:00,
2013-09-01 12:35:00,82.0,42.7,29.81,WSW,253,1.0,5.0,25,0.00,,,0.00,WeatherCatV1.21B27,2013-09-01 19:35:00,
2013-09-01 12:40:00,82.2,42.8,29.81,WSW,238,1.0,2.0,25,0.00,,,0.00,WeatherCatV1.21B27,2013-09-01 19:40:00,
2013-09-01 12:45:00,82.7,43.3,29.81,SE,143,0.0,1.0,25,0.00,,,0.00,WeatherCatV1.21B27,2013-09-01 19:45:00,
2013-09-01 12:50:00,83.6,43.0,29.81,WSW,256,1.0,3.0,24,0.00,,,0.00,WeatherCatV1.21B27,2013-09-01 19:50:00,
2013-09-01 12:55:00,83.6,44.0,29.81,West,264,1.0,2.0,25,0.00,,,0.00,WeatherCatV1.21B27,2013-09-01 19:55:00,
2013-09-01 13:00:00,84.0,44.4,29.81,WSW,243,0.0,5.0,25,0.00,,,0.00,WeatherCatV1.21B27,2013-09-01 20:00:00,
2013-09-01 13:05:00,84.6,43.8,29.81,SE,127,4.0,4.0,24,0.00,,,0.00,WeatherCatV1.21B27,2013-09-01 20:05:00,
2013-09-01 13:10:00,85.2,43.2,29.80,North,353,1.0,2.0,23,0.00,,,0.00,WeatherCatV1.21B27,2013-09-01 20:10:00,
2013-09-01 13:15:00,85.1,45.3,29.81,West,267,0.0,3.0,25,0.00,,,0.00,WeatherCatV1.21B27,2013-09-01 20:15:00,
2013-09-01 13:20:00,85.1,45.3,29.81,SE,145,0.0,1.0,25,0.00,,,0.00,WeatherCatV1.21B27,2013-09-01 20:20:00,
2013-09-01 13:25:00,85.2,46.4,29.80,West,269,3.0,3.0,26,0.00,,,0.00,WeatherCatV1.21B27,2013-09-01 20:25:00,
2013-09-01 13:30:00,84.8,46.1,29.80,SW,236,0.0,2.0,26,0.00,,,0.00,WeatherCatV1.21B27,2013-09-01 20:30:00,
2013-09-01 13:35:00,85.6,44.6,29.80,WSW,249,1.0,2.0,24,0.00,,,0.00,WeatherCatV1.21B27,2013-09-01 20:35:00,
2013-09-01 13:40:00,86.0,46.0,29.80,West,260,3.0,3.0,25,0.00,,,0.00,WeatherCatV1.21B27,2013-09-01 20:40:00,
2013-09-01 13:45:00,85.2,45.4,29.80,SW,215,1.0,2.0,25,0.00,,,0.00,WeatherCatV1.21B27,2013-09-01 20:45:00,
2013-09-01 13:50:00,86.0,45.0,29.80,WSW,240,0.0,2.0,24,0.00,,,0.00,WeatherCatV1.21B27,2013-09-01 20:50:00,
2013-09-01 13:55:00,86.4,46.4,29.80,SE,138,0.0,2.0,25,0.00,,,0.00,WeatherCatV1.21B27,2013-09-01 20:55:00,
2013-09-01 14:00:00,86.3,46.3,29.80,SE,145,0.0,3.0,25,0.00,,,0.00,WeatherCatV1.21B27,2013-09-01 21:00:00,
2013-09-01 14:05:00,85.9,47.0,29.80,SW,231,0.0,2.0,26,0.00,,,0.00,WeatherCatV1.21B27,2013-09-01 21:05:00,
2013-09-01 14:10:00,86.5,46.5,29.79,SE,134,1.0,3.0,25,0.00,,,0.00,WeatherCatV1.21B27,2013-09-01 21:10:00,
2013-09-01 14:15:00,86.5,47.5,29.79,SE,145,0.0,1.0,26,0.00,,,0.00,WeatherCatV1.21B27,2013-09-01 21:15:00,
2013-09-01 14:20:00,87.1,47.0,29.79,SSW,193,4.0,4.0,25,0.00,,,0.00,WeatherCatV1.21B27,2013-09-01 21:20:00,
2013-09-01 14:25:00,86.7,46.6,29.79,West,262,0.0,3.0,25,0.00,,,0.00,WeatherCatV1.21B27,2013-09-01 21:25:00,
2013-09-01 14:30:00,86.1,48.2,29.79,West,270,3.0,3.0,27,0.00,,,0.00,WeatherCatV1.21B27,2013-09-01 21:30:00,
2013-09-01 14:35:00,85.9,47.0,29.79,SE,129,1.0,3.0,26,0.00,,,0.00,WeatherCatV1.21B27,2013-09-01 21:35:00,
2013-09-01 14:40:00,85.4,45.5,29.78,West,264,1.0,4.0,25,0.00,,,0.00,WeatherCatV1.21B27,2013-09-01 21:40:00,
2013-09-01 14:45:00,84.5,45.8,29.79,West,267,0.0,3.0,26,0.00,,,0.00,WeatherCatV1.21B27,2013-09-01 21:45:00,
2013-09-01 14:50:00,84.1,46.5,29.79,West,260,3.0,3.0,27,0.00,,,0.00,WeatherCatV1.21B27,2013-09-01 21:50:00,
2013-09-01 14:55:00,83.6,47.0,29.79,WSW,258,2.0,3.0,28,0.00,,,0.00,WeatherCatV1.21B27,2013-09-01 21:55:00,
2013-09-01 15:00:00,83.5,46.9,29.78,West,267,1.0,2.0,28,0.00,,,0.00,WeatherCatV1.21B27,2013-09-01 22:00:00,
2013-09-01 15:05:00,84.2,48.5,29.78,West,266,0.0,2.0,29,0.00,,,0.00,WeatherCatV1.21B27,2013-09-01 22:05:00,
2013-09-01 15:10:00,84.9,48.1,29.78,West,269,2.0,2.0,28,0.00,,,0.00,WeatherCatV1.21B27,2013-09-01 22:10:00,
2013-09-01 15:15:00,84.7,48.0,29.78,West,266,1.0,2.0,28,0.00,,,0.00,WeatherCatV1.21B27,2013-09-01 22:15:00,
2013-09-01 15:20:00,84.3,47.6,29.78,West,269,2.0,4.0,28,0.00,,,0.00,WeatherCatV1.21B27,2013-09-01 22:20:00,
2013-09-01 15:25:00,84.1,47.4,29.78,WSW,248,1.0,1.0,28,0.00,,,0.00,WeatherCatV1.21B27,2013-09-01 22:25:00,
2013-09-01 15:30:00,83.9,48.2,29.78,WNW,297,0.0,0.0,29,0.00,,,0.00,WeatherCatV1.21B27,2013-09-01 22:30:00,
2013-09-01 15:35:00,83.9,49.1,29.78,West,263,1.0,1.0,30,0.00,,,0.00,WeatherCatV1.21B27,2013-09-01 22:35:00,
2013-09-01 15:40:00,83.7,49.8,29.78,WSW,249,0.0,2.0,31,0.00,,,0.00,WeatherCatV1.21B27,2013-09-01 22:40:00,
2013-09-01 15:45:00,83.2,50.2,29.78,West,266,1.0,2.0,32,0.00,,,0.00,WeatherCatV1.21B27,2013-09-01 22:45:00,
2013-09-01 15:50:00,82.9,50.0,29.78,WSW,256,1.0,2.0,32,0.00,,,0.00,WeatherCatV1.21B27,2013-09-01 22:50:00,
2013-09-01 15:55:00,82.4,49.5,29.78,West,269,2.0,3.0,32,0.00,,,0.00,WeatherCatV1.21B27,2013-09-01 22:55:00,
2013-09-01 16:00:00,82.1,49.3,29.78,WSW,248,0.0,1.0,32,0.00,,,0.00,WeatherCatV1.21B27,2013-09-01 23:00:00,
2013-09-01 16:05:00,81.7,48.9,29.78,West,259,1.0,2.0,32,0.00,,,0.00,WeatherCatV1.21B27,2013-09-01 23:05:00,
2013-09-01 16:10:00,81.7,48.9,29.78,West,266,1.0,1.0,32,0.00,,,0.00,WeatherCatV1.21B27,2013-09-01 23:10:00,
2013-09-01 16:15:00,82.0,50.0,29.77,West,267,0.0,1.0,33,0.00,,,0.00,WeatherCatV1.21B27,2013-09-01 23:15:00,
2013-09-01 16:20:00,82.6,49.7,29.77,WSW,257,1.0,4.0,32,0.00,,,0.00,WeatherCatV1.21B27,2013-09-01 23:20:00,
2013-09-01 16:25:00,82.8,49.0,29.77,West,260,0.0,1.0,31,0.00,,,0.00,WeatherCatV1.21B27,2013-09-01 23:25:00,
2013-09-01 16:30:00,82.8,49.9,29.77,SE,138,1.0,2.0,32,0.00,,,0.00,WeatherCatV1.21B27,2013-09-01 23:30:00,
2013-09-01 16:35:00,82.9,50.0,29.77,West,270,1.0,2.0,32,0.00,,,0.00,WeatherCatV1.21B27,2013-09-01 23:35:00,
2013-09-01 16:40:00,82.7,49.8,29.77,West,273,0.0,1.0,32,0.00,,,0.00,WeatherCatV1.21B27,2013-09-01 23:40:00,
2013-09-01 16:45:00,82.8,50.7,29.77,SE,128,0.0,0.0,33,0.00,,,0.00,WeatherCatV1.21B27,2013-09-01 23:45:00,
2013-09-01 16:50:00,83.0,51.7,29.77,SW,233,0.0,0.0,34,0.00,,,0.00,WeatherCatV1.21B27,2013-09-01 23:50:00,
2013-09-01 16:55:00,83.3,52.0,29.77,SE,128,1.0,3.0,34,0.00,,,0.00,WeatherCatV1.21B27,2013-09-01 23:55:00,
2013-09-01 17:00:00,83.4,52.1,29.77,SSW,198,2.0,2.0,34,0.00,,,0.00,WeatherCatV1.21B27,2013-09-02 00:00:00,
2013-09-01 17:05:00,83.9,53.3,29.77,West,274,3.0,3.0,35,0.00,,,0.00,WeatherCatV1.21B27,2013-09-02 00:05:00,
2013-09-01 17:10:00,83.9,52.5,29.76,West,270,1.0,2.0,34,0.00,,,0.00,WeatherCatV1.21B27,2013-09-02 00:10:00,
2013-09-01 17:15:00,83.9,51.7,29.76,West,277,1.0,3.0,33,0.00,,,0.00,WeatherCatV1.21B27,2013-09-02 00:15:00,
2013-09-01 17:20:00,83.9,52.5,29.76,West,263,3.0,5.0,34,0.00,,,0.00,WeatherCatV1.21B27,2013-09-02 00:20:00,
2013-09-01 17:25:00,83.2,52.7,29.76,West,263,0.0,3.0,35,0.00,,,0.00,WeatherCatV1.21B27,2013-09-02 00:25:00,
2013-09-01 17:30:00,83.2,52.7,29.76,WSW,253,2.0,3.0,35,0.00,,,0.00,WeatherCatV1.21B27,2013-09-02 00:30:00,
2013-09-01 17:35:00,83.3,52.8,29.76,West,271,1.0,3.0,35,0.00,,,0.00,WeatherCatV1.21B27,2013-09-02 00:35:00,
2013-09-01 17:40:00,83.0,51.7,29.76,SSE,155,2.0,2.0,34,0.00,,,0.00,WeatherCatV1.21B27,2013-09-02 00:40:00,
2013-09-01 17:45:00,82.9,51.6,29.76,SE,133,0.0,2.0,34,0.00,,,0.00,WeatherCatV1.21B27,2013-09-02 00:45:00,
2013-09-01 17:50:00,82.7,51.5,29.76,West,269,0.0,4.0,34,0.00,,,0.00,WeatherCatV1.21B27,2013-09-02 00:50:00,
2013-09-01 17:55:00,82.5,52.1,29.76,West,270,0.0,3.0,35,0.00,,,0.00,WeatherCatV1.21B27,2013-09-02 00:55:00,
2013-09-01 18:00:00,82.3,51.9,29.76,West,259,2.0,5.0,35,0.00,,,0.00,WeatherCatV1.21B27,2013-09-02 01:00:00,
2013-09-01 18:05:00,81.8,52.2,29.76,WSW,248,3.0,4.0,36,0.00,,,0.00,WeatherCatV1.21B27,2013-09-02 01:05:00,
2013-09-01 18:10:00,81.4,52.6,29.76,West,262,0.0,1.0,37,0.00,,,0.00,WeatherCatV1.21B27,2013-09-02 01:10:00,
2013-09-01 18:15:00,81.3,52.5,29.76,West,263,2.0,2.0,37,0.00,,,0.00,WeatherCatV1.21B27,2013-09-02 01:15:00,
2013-09-01 18:20:00,81.0,53.0,29.76,West,263,1.0,5.0,38,0.00,,,0.00,WeatherCatV1.21B27,2013-09-02 01:20:00,
2013-09-01 18:25:00,80.8,53.5,29.76,West,264,2.0,2.0,39,0.00,,,0.00,WeatherCatV1.21B27,2013-09-02 01:25:00,
2013-09-01 18:30:00,80.6,53.3,29.76,WSW,257,0.0,1.0,39,0.00,,,0.00,WeatherCatV1.21B27,2013-09-02 01:30:00,
2013-09-01 18:35:00,80.3,53.8,29.76,WSW,253,0.0,1.0,40,0.00,,,0.00,WeatherCatV1.21B27,2013-09-02 01:35:00,
2013-09-01 18:40:00,80.2,54.3,29.77,WSW,253,0.0,0.0,41,0.00,,,0.00,WeatherCatV1.21B27,2013-09-02 01:40:00,
2013-09-01 18:45:00,80.2,55.0,29.77,WSW,252,0.0,0.0,42,0.00,,,0.00,WeatherCatV1.21B27,2013-09-02 01:45:00,
2013-09-01 18:50:00,80.1,54.2,29.77,West,263,0.0,2.0,41,0.00,,,0.00,WeatherCatV1.21B27,2013-09-02 01:50:00,
2013-09-01 18:55:00,80.0,54.8,29.77,SE,129,0.0,1.0,42,0.00,,,0.00,WeatherCatV1.21B27,2013-09-02 01:55:00,
2013-09-01 19:00:00,79.8,55.3,29.77,ESE,119,0.0,0.0,43,0.00,,,0.00,WeatherCatV1.21B27,2013-09-02 02:00:00,
2013-09-01 19:05:00,79.6,55.1,29.76,SE,132,0.0,1.0,43,0.00,,,0.00,WeatherCatV1.21B27,2013-09-02 02:05:00,
2013-09-01 19:10:00,79.4,55.6,29.77,SSE,152,0.0,1.0,44,0.00,,,0.00,WeatherCatV1.21B27,2013-09-02 02:10:00,
2013-09-01 19:15:00,79.2,55.4,29.77,SE,139,0.0,1.0,44,0.00,,,0.00,WeatherCatV1.21B27,2013-09-02 02:15:00,
2013-09-01 19:20:00,79.0,55.2,29.77,SE,138,0.0,0.0,44,0.00,,,0.00,WeatherCatV1.21B27,2013-09-02 02:20:00,
2013-09-01 19:25:00,78.8,55.0,29.77,SE,139,0.0,0.0,44,0.00,,,0.00,WeatherCatV1.21B27,2013-09-02 02:25:00,
2013-09-01 19:30:00,78.6,54.8,29.77,SE,139,0.0,0.0,44,0.00,,,0.00,WeatherCatV1.21B27,2013-09-02 02:30:00,
2013-09-01 19:35:00,78.3,54.6,29.77,SE,138,0.0,0.0,44,0.00,,,0.00,WeatherCatV1.21B27,2013-09-02 02:35:00,
2013-09-01 19:40:00,78.1,55.0,29.78,SE,139,0.0,0.0,45,0.00,,,0.00,WeatherCatV1.21B27,2013-09-02 02:40:00,
2013-09-01 19:45:00,77.7,54.6,29.78,SE,140,0.0,0.0,45,0.00,,,0.00,WeatherCatV1.21B27,2013-09-02 02:45:00,
2013-09-01 19:50:00,77.5,54.5,29.78,SE,132,0.0,1.0,45,0.00,,,0.00,WeatherCatV1.21B27,2013-09-02 02:50:00,
2013-09-01 19:55:00,77.4,54.4,29.78,SE,129,0.0,0.0,45,0.00,,,0.00,WeatherCatV1.21B27,2013-09-02 02:55:00,
2013-09-01 20:00:00,77.1,54.7,29.78,SE,135,0.0,1.0,46,0.00,,,0.00,WeatherCatV1.21B27,2013-09-02 03:00:00,
2013-09-01 20:05:00,76.9,54.5,29.78,SE,146,0.0,1.0,46,0.00,,,0.00,WeatherCatV1.21B27,2013-09-02 03:05:00,
2013-09-01 20:10:00,76.6,54.2,29.78,SE,134,0.0,3.0,46,0.00,,,0.00,WeatherCatV1.21B27,2013-09-02 03:10:00,
2013-09-01 20:15:00,76.4,54.1,29.78,SE,143,0.0,2.0,46,0.00,,,0.00,WeatherCatV1.21B27,2013-09-02 03:15:00,
2013-09-01 20:20:00,76.2,53.3,29.78,SE,138,0.0,1.0,45,0.00,,,0.00,WeatherCatV1.21B27,2013-09-02 03:20:00,
2013-09-01 20:25:00,76.0,53.7,29.78,SW,226,1.0,1.0,46,0.00,,,0.00,WeatherCatV1.21B27,2013-09-02 03:25:00,
2013-09-01 20:30:00,75.8,53.5,29.79,SE,136,0.0,1.0,46,0.00,,,0.00,WeatherCatV1.21B27,2013-09-02 03:30:00,
2013-09-01 20:35:00,75.7,52.8,29.79,SE,127,0.0,3.0,45,0.00,,,0.00,WeatherCatV1.21B27,2013-09-02 03:35:00,
2013-09-01 20:40:00,75.6,53.3,29.79,SE,139,2.0,2.0,46,0.00,,,0.00,WeatherCatV1.21B27,2013-09-02 03:40:00,
2013-09-01 20:45:00,75.5,53.2,29.79,SE,143,0.0,0.0,46,0.00,,,0.00,WeatherCatV1.21B27,2013-09-02 03:45:00,
2013-09-01 20:50:00,75.4,53.8,29.79,SE,130,0.0,1.0,47,0.00,,,0.00,WeatherCatV1.21B27,2013-09-02 03:50:00,
2013-09-01 20:55:00,75.3,53.7,29.79,SSE,163,0.0,0.0,47,0.00,,,0.00,WeatherCatV1.21B27,2013-09-02 03:55:00,
2013-09-01 21:00:00,75.3,53.7,29.80,SSE,152,0.0,0.0,47,0.00,,,0.00,WeatherCatV1.21B27,2013-09-02 04:00:00,
2013-09-01 21:01:00,75.3,53.7,29.80,SSE,152,0.0,0.0,47,0.00,,,0.00,WeatherCatV1.21B27,2013-09-02 04:01:00,
2013-09-01 21:06:00,75.2,54.1,29.80,SE,141,0.0,0.0,48,0.00,,,0.00,WeatherCatV1.21B27,2013-09-02 04:06:00,
2013-09-01 21:11:00,75.1,54.0,29.80,SE,129,0.0,1.0,48,0.00,,,0.00,WeatherCatV1.21B27,2013-09-02 04:11:00,
2013-09-01 21:16:00,75.1,54.0,29.80,SE,129,0.0,0.0,48,0.00,,,0.00,WeatherCatV1.21B27,2013-09-02 04:16:00,
2013-09-01 21:21:00,75.0,54.5,29.80,SE,127,0.0,1.0,49,0.00,,,0.00,WeatherCatV1.21B27,2013-09-02 04:21:00,
2013-09-01 21:26:00,74.9,54.4,29.80,SE,128,0.0,0.0,49,0.00,,,0.00,WeatherCatV1.21B27,2013-09-02 04:26:00,
2013-09-01 21:31:00,74.8,54.3,29.80,SE,128,0.0,0.0,49,0.00,,,0.00,WeatherCatV1.21B27,2013-09-02 04:31:00,
2013-09-01 21:36:00,74.7,54.8,29.80,SE,127,0.0,0.0,50,0.00,,,0.00,WeatherCatV1.21B27,2013-09-02 04:36:00,
2013-09-01 21:41:00,74.6,54.7,29.81,SE,125,0.0,1.0,50,0.00,,,0.00,WeatherCatV1.21B27,2013-09-02 04:41:00,
2013-09-01 21:46:00,74.6,54.7,29.81,SE,124,0.0,0.0,50,0.00,,,0.00,WeatherCatV1.21B27,2013-09-02 04:46:00,
2013-09-01 21:51:00,74.5,54.1,29.81,ESE,121,0.0,1.0,49,0.00,,,0.00,WeatherCatV1.21B27,2013-09-02 04:51:00,
2013-09-01 21:56:00,74.5,54.1,29.81,ESE,121,0.0,0.0,49,0.00,,,0.00,WeatherCatV1.21B27,2013-09-02 04:56:00,
2013-09-01 22:01:00,74.4,54.0,29.81,ESE,120,0.0,0.0,49,0.00,,,0.00,WeatherCatV1.21B27,2013-09-02 05:01:00,
2013-09-01 22:06:00,74.3,53.9,29.81,ESE,118,0.0,0.0,49,0.00,,,0.00,WeatherCatV1.21B27,2013-09-02 05:06:00,
2013-09-01 22:11:00,74.2,54.3,29.81,ESE,114,0.0,0.0,50,0.00,,,0.00,WeatherCatV1.21B27,2013-09-02 05:11:00,
2013-09-01 22:16:00,74.2,54.9,29.81,ESE,113,0.0,0.0,51,0.00,,,0.00,WeatherCatV1.21B27,2013-09-02 05:16:00,
2013-09-01 22:21:00,73.9,54.6,29.81,ESE,113,0.0,0.0,51,0.00,,,0.00,WeatherCatV1.21B27,2013-09-02 05:21:00,
2013-09-01 22:26:00,73.7,54.4,29.80,ESE,112,0.0,0.0,51,0.00,,,0.00,WeatherCatV1.21B27,2013-09-02 05:26:00,
2013-09-01 22:31:00,73.5,54.8,29.81,ESE,111,0.0,0.0,52,0.00,,,0.00,WeatherCatV1.21B27,2013-09-02 05:31:00,
2013-09-01 22:36:00,73.3,55.1,29.80,ESE,111,0.0,0.0,53,0.00,,,0.00,WeatherCatV1.21B27,2013-09-02 05:36:00,
2013-09-01 22:41:00,73.1,54.4,29.81,ESE,111,0.0,0.0,52,0.00,,,0.00,WeatherCatV1.21B27,2013-09-02 05:41:00,
2013-09-01 22:45:00,72.9,54.2,29.81,ESE,111,0.0,0.0,52,0.00,,,0.00,WeatherCatV1.21B27,2013-09-02 05:45:00,
2013-09-01 22:46:00,72.9,53.7,29.81,ESE,111,0.0,0.0,51,0.00,,,0.00,WeatherCatV1.21B27,2013-09-02 05:46:00,
2013-09-01 22:50:00,72.8,53.6,29.81,ESE,111,0.0,0.0,51,0.00,,,0.00,WeatherCatV1.21B27,2013-09-02 05:50:00,
2013-09-01 22:55:00,72.8,53.6,29.81,ESE,111,0.0,0.0,51,0.00,,,0.00,WeatherCatV1.21B27,2013-09-02 05:55:00,
2013-09-01 23:00:00,72.8,53.6,29.81,ESE,111,0.0,0.0,51,0.00,,,0.00,WeatherCatV1.21B27,2013-09-02 06:00:00,
2013-09-01 23:05:00,72.8,53.6,29.81,ESE,111,0.0,0.0,51,0.00,,,0.00,WeatherCatV1.21B27,2013-09-02 06:05:00,
2013-09-01 23:10:00,72.8,53.6,29.81,ESE,111,0.0,0.0,51,0.00,,,0.00,WeatherCatV1.21B27,2013-09-02 06:10:00,
2013-09-01 23:15:00,72.8,53.6,29.81,ESE,111,0.0,0.0,51,0.00,,,0.00,WeatherCatV1.21B27,2013-09-02 06:15:00,
2013-09-01 23:20:00,72.8,53.6,29.81,ESE,111,0.0,0.0,51,0.00,,,0.00,WeatherCatV1.21B27,2013-09-02 06:20:00,
2013-09-01 23:25:00,72.8,53.6,29.81,ESE,111,0.0,0.0,51,0.00,,,0.00,WeatherCatV1.21B27,2013-09-02 06:25:00,
2013-09-01 23:30:00,72.8,53.6,29.81,ESE,111,0.0,0.0,51,0.00,,,0.00,WeatherCatV1.21B27,2013-09-02 06:30:00,
2013-09-01 23:35:00,72.8,53.6,29.81,ESE,111,0.0,0.0,51,0.00,,,0.00,WeatherCatV1.21B27,2013-09-02 06:35:00,
2013-09-01 23:40:00,72.6,53.4,29.81,SE,135,0.0,0.0,51,0.00,,,0.00,WeatherCatV1.21B27,2013-09-02 06:40:00,
2013-09-01 23:45:00,72.6,53.4,29.81,SE,135,0.0,0.0,51,0.00,,,0.00,WeatherCatV1.21B27,2013-09-02 06:45:00,
2013-09-01 23:50:00,72.6,53.4,29.81,SE,135,0.0,0.0,51,0.00,,,0.00,WeatherCatV1.21B27,2013-09-02 06:50:00,
2013-09-01 23:55:00,72.6,53.4,29.81,SE,135,0.0,0.0,51,0.00,,,0.00,WeatherCatV1.21B27,2013-09-02 06:55:00,